Cloud_Cover
0 0 0 0 0 0 0 0 0 0 0 3 3 5 3 0 0 0 0 0 0 0 0 0 0 0 0 5 23 42 100 93 73 97 100 69 44 15 100 5 51 0 0 33 99
0 0 0 0 0 0 0 0 0 0 0 5 17 9 13 3 0 0 0 0 0 0 0 0 0 0 0 0 6 50 87 83 88 83 86 10 100 4 2 7 26 6 47 61 99
0 0 0 0 0 0 0 0 0 0 0 0 6 9 0 2 0 0 0 0 0 0 0 0 0 0 0 0 2 88 99 100 76 55 91 98 78 93 49 29 32 0 10 37 76
0 0 0 0 0 0 0 0 0 0 0 0 1 13 0 0 0 0 0 0 0 0 0 0 0 0 0 0 2 85 92 100 100 51 71 100 100 100 88 100 3 0 0 8 78
0 0 0 0 0 0 0 0 0 0 0 6 11 26 1 0 0 0 0 0 0 0 0 0 0 0 0 3 16 62 73 100 88 100 22 67 83 96 47 87 0 0 5 40 30
0 0 0 0 0 0 0 0 0 0 11 86 97 70 0 0 0 0 0 0 0 0 0 0 0 0 0 0 12 59 84 100 100 100 8 5 13 0 39 26 0 0 0 8 28
0 0 0 0 0 0 0 0 0 0 2 90 100 26 0 0 0 0 0 0 0 0 0 0 0 0 0 0 1 96 100 75 70 56 52 38 80 2 90 41 0 0 0 0 2
0 0 0 0 0 0 0 0 0 0 0 11 100 1 0 0 0 0 0 0 0 0 0 0 0 0 0 0 4 17 59 67 23 20 5 8 13 100 27 88 0 0 0 0 0
0 0 0 0 0 0 0 0 0 0 0 59 25 0 0 0 0 0 0 0 0 0 0 0 0 0 0 0 3 4 5 1 54 19 8 4 25 100 5 99 1 0 0 0 0
0 0 0 0 0 0 0 0 0 30 3 0 0 0 0 0 0 0 0 0 0 0 0 0 0 0 0 0 0 3 5 4 5 99 5 5 40 5 75 72 53 0 0 0 0
0 0 0 0 0 0 0 0 0 0 0 0 0 0 0 0 0 0 0 0 0 0 0 0 0 0 0 0 0 4 5 0 5 2 93 6 84 0 15 77 100 44 5 0 0
0 0 0 0 0 0 0 0 0 0 0 0 0 0 0 0 0 0 0 0 0 0 0 0 0 0 0 0 0 0 2 3 4 94 59 81 2 26 77 100 100 4 98 2 0
0 0 0 0 0 1 0 0 0 0 0 0 0 0 0 0 0 0 0 0 0 0 0 0 0 0 0 0 0 0 0 0 5 11 100 100 83 55 18 60 83 44 6 62 0
0 0 0 0 0 0 0 0 0 0 0 0 0 0 0 0 0 0 0 0 0 0 0 0 0 0 0 0 0 0 0 0 5 74 5 33 98 2 4 86 11 35 60 98 0
0 0 0 0 0 0 0 0 0 0 0 0 0 0 0 0 0 0 0 0 0 0 0 0 0 0 0 0 0 0 0 0 0 5 84 63 52 87 6 2 22 1 0 81 11
0 0 0 0 0 0 0 0 0 0 0 0 0 0 0 0 0 0 0 0 0 0 0 0 0 0 0 0 0 0 0 0 0 0 2 1 34 16 68 1 43 4 5 4 9
0 0 0 0 0 0 0 0 0 0 0 9 0 0 0 0 0 0 0 0 0 0 0 0 0 0 0 0 0 0 0 0 0 0 0 0 3 0 13 67 98 89 11 59 1
0 0 0 0 0 0 0 0 2 11 98 0 2 0 0 0 0 0 0 0 0 0 0 0 0 0 0 0 0 0 0 0 0 0 0 0 0 0 1 95 62 100 91 65 5
0 0 0 0 0 0 1 5 7 5 49 24 80 100 86 100 2 56 0 0 0 0 0 5 0 0 0 0 0 0 0 0 0 0 0 0 0 0 0 0 75 99 100 97 5
0 0 2 0 0 1 33 30 19 100 20 100 74 100 100 100 17 31 5 2 0 0 0 0 1 0 0 0 0 0 0 0 0 0 0 0 0 0 0 0 2 2 66 82 5
0 4 13 4 16 74 98 94 94 93 80 100 95 100 100 100 93 83 5 64 96 94 1 0 0 0 0 0 0 0 0 0 0 0 0 1 0 0 0 0 0 0 0 5 8
2 76 50 5 95 85 100 93 58 14 30 97 100 100 100 100 100 100 100 100 97 21 24 0 0 0 32 0 0 0 0 0 0 0 0 6 93 3 0 0 0 0 0 2 23
39 35 99 9 88 52 35 88 45 60 70 38 45 100 100 100 100 100 100 94 14 23 100 95 0 0 5 91 4 0 0 0 0 0 0 0 0 0 0 0 0 0 1 3 5
100 84 84 100 94 98 100 99 83 84 78 97 97 100 100 100 100 100 100 100 54 78 7 40 0 0 0 0 8 0 0 0 0 0 0 0 0 0 0 0 0 0 0 0 0
60 100 100 100 94 100 100 75 93 56 100 100 22 100 100 100 100 100 100 100 100 81 5 35 0 0 5 4 100 0 0 0 0 0 0 0 0 0 0 0 0 0 0 2 0
54 100 100 100 99 100 100 96 99 52 99 94 100 96 100 100 100 100 100 100 100 15 56 5 0 2 78 18 100 100 4 0 0 0 0 0 25 0 0 0 0 0 0 0 0
88 100 100 100 84 100 100 100 100 87 62 100 100 98 76 100 100 100 100 100 100 100 76 59 95 25 3 13 66 85 91 37 0 0 0 0 25 10 0 0 0 0 0 0 0